Starlink 2001

operational
NORAD ID: 47596 Int'l Des: 2021-009 Owner: SPXS Country: US Constellation: starlink
LEOCIRCULARSTARLINK_TYPE

Über Starlink 2001

Beschreibung wird geladen...

Live-Position

3D-Globus wird geladen...

Nächste Überflüge

Höhenverlauf

Altitude vs Time

uPlot chart will show altitude changes over time

Zweizeiliger Elementsatz

1 47596U 21009BA 25306.18296728 .00002270 00000-0 17123-3 0 9990
2 47596 53.0547 254.0180 0001458 90.3648 269.7508 15.06395804261293
Epoch: 2. Nov. 2025 • Age: 36 hours

Aktueller Status

Höhe 547.0 km
Geschwindigkeit 7.59 km/s
Subsatellitenpunkt 14.70°N, 130.8°E
Startdatum 4. Feb. 2021
Alter 4.7 years
Typ internet

Technische Details

Klassifizierung Payload
Masse 260.00 kg
Trockenmasse 248.00 kg
Gesamtmasse 260.00 kg
Länge 0.20 m
Durchmesser 2.80 m
Spannweite 9.00 m
Form Box + pan
Hersteller SPXS
Bus-Typ Starlink
Phasenstatus In Orbit
Besitzer/Staat SPXS/US

Große Konstellationen

Loading constellations...